Change the Weather History Date:

Friday, August 23, 2013

  Actual Average Record
Temperature  
Mean Temperature 68 °F 68 °F  
Max Temperature 84 °F 80 °F 102 °F (1936)
Min Temperature 51 °F 56 °F 40 °F (1984)
Degree Days  
Heating Degree Days 0 1  
Month to date heating degree days 23 14  
Since 1 June heating degree days 118 89  
Since 1 July heating degree days 49 27  
Cooling Degree Days 3 4  
Month to date cooling degree days 67 127  
Year to date cooling degree days 415 449  
Since 1 June cooling degree days 390 426  
Growing Degree Days 18 (Base 50)    
Moisture  
Dew Point 62 °F    
Average Humidity 77    
Maximum Humidity 96    
Minimum Humidity 58    
Precipitation  
Precipitation 0.00 in 0.08 in 1.02 in (1990)
Month to date precipitation 0.64 1.78  
Year to date precipitation 18.36 16.08  
Sea Level Pressure  
Sea Level Pressure 29.98 in    
Wind  
Wind Speed 8 mph (South)    
Max Wind Speed 18 mph    
Max Gust Speed 24 mph    
T = Trace of Precipitation, MM = Missing Value Source: NWS Daily Summary

Daily Weather History Graph

Daily Weather History Graph

Search for Another Location

Airport or City:

Trip Planner

Search our weather history database for the weather conditions in past years. The results will help you decide how hot, cold, wet, or windy it might be!

Date:

Astronomy

Aug. 23, 2013 Rise Set
Actual Time 6:38 AM CDT 8:21 PM CDT
Civil Twilight 6:06 AM CDT 8:53 PM CDT
Nautical Twilight 5:28 AM CDT 9:31 PM CDT
Astronomical Twilight 4:46 AM CDT 10:12 PM CDT
Moon 9:27 PM CDT (8/23) 9:47 AM CDT (8/23)
Length of Visible Light 14h 46m
Length of Day
13h 43m
Waning Gibbous, 91% of the Moon is Illuminated
Aug 23
Waning Gibbous
Aug 28
Last Quarter
Sep 5
New
Sep 12
First Quarter
Sep 19
Full

Hourly Weather History & Observations

Time (CDT) Temp. Heat Index Dew Point Humidity Pressure Visibility Wind Dir Wind Speed Gust Speed Precip Events Conditions
12:56 AM 55.9 °F - 53.1 °F 90% 30.09 in - Calm Calm - N/A   Unknown
1:56 AM 54.0 °F - 51.1 °F 90% 30.08 in - Calm Calm - N/A   Unknown
2:56 AM 53.1 °F - 51.1 °F 93% 30.07 in - Calm Calm - N/A   Unknown
3:56 AM 52.0 °F - 50.0 °F 93% 30.07 in - Calm Calm - N/A   Unknown
4:56 AM 53.1 °F - 50.0 °F 89% 30.06 in - West 3.5 mph - N/A   Unknown
5:56 AM 53.1 °F - 51.1 °F 93% 30.06 in - SSW 4.6 mph - N/A   Unknown
6:56 AM 55.9 °F - 52.0 °F 87% 30.06 in - SSE 4.6 mph - N/A   Unknown
7:56 AM 60.1 °F - 55.0 °F 83% 30.06 in - Calm Calm - N/A   Unknown
8:56 AM 64.9 °F - 57.0 °F 75% 30.05 in - SSW 4.6 mph - N/A   Unknown
9:56 AM 70.0 °F - 59.0 °F 68% 30.04 in - SSE 10.4 mph - N/A   Unknown
10:56 AM 73.0 °F - 61.0 °F 66% 30.03 in - South 8.1 mph - N/A   Unknown
11:56 AM 78.1 °F - 63.0 °F 60% 30.00 in - SSE 9.2 mph 17.3 mph N/A   Unknown
12:56 PM 80.1 °F 81.9 °F 64.9 °F 60% 29.98 in - SSE 12.7 mph 18.4 mph N/A   Unknown
1:56 PM 82.0 °F 84.5 °F 66.9 °F 60% 29.97 in - South 10.4 mph - N/A   Unknown
2:56 PM 82.9 °F 85.8 °F 68.0 °F 60% 29.94 in - SSE 12.7 mph 23.0 mph N/A   Unknown
3:56 PM 84.0 °F 87.8 °F 69.1 °F 61% 29.92 in - SSE 15.0 mph 20.7 mph N/A   Unknown
4:56 PM 84.0 °F 88.4 °F 70.0 °F 63% 29.90 in - SSE 15.0 mph 21.9 mph N/A   Unknown
5:56 PM 84.0 °F 88.4 °F 70.0 °F 63% 29.88 in - SSE 15.0 mph 24.2 mph N/A   Unknown
6:56 PM 82.0 °F 85.9 °F 70.0 °F 67% 29.88 in - SSE 13.8 mph 20.7 mph N/A   Unknown
7:56 PM 80.1 °F 83.2 °F 70.0 °F 71% 29.86 in - SSE 8.1 mph 16.1 mph N/A   Unknown
8:56 PM 78.1 °F - 71.1 °F 79% 29.86 in - South 9.2 mph - N/A   Unknown
9:56 PM 75.9 °F - 71.1 °F 85% 29.86 in - South 10.4 mph - N/A   Unknown
10:56 PM 75.0 °F - 72.0 °F 90% 29.86 in - South 10.4 mph - N/A   Unknown
11:56 PM 73.9 °F - 72.0 °F 93% 29.86 in - South 10.4 mph - N/A   Unknown